sat.trackr.live / text

‹ back to catalog

STARLINK-30992

NORAD 58524 · 2023-191S

PAYLOAD ACTIVE UNKNOWN

§ Identity

Operator
Country
US
Launch date
2023-12-07
Launch site
AFETR
Launch vehicle
Mass (kg)
RCS (m²)

Purposes: comms

External: N2YO · Heavens-Above · Gunter

§ Orbital elements

Epoch: 2026-05-25T01:26:52.842048Z

Period
94.27 min
Inclination
43.0033°
Eccentricity
0.0001046
Mean motion
15.27578417 rev/d
Perigee alt
482.3 km
Apogee alt
483.8 km
Semi-major
6,861.2 km
B*
4.9556e-6
RAAN
31.9267°
Arg perigee
267.7621°
Mean anomaly
92.3111°
Rev number
13,715

§ Raw data

STARLINK-309921 58524U 23191S   26145.06033382 -.00000126  00000+0  49556-5 0  99962 58524  43.0033  31.9267 0001046 267.7621  92.3111 15.27578417137150

JSON: /api/v1/satellites/58524 · /tle

For live sub-satellite position, see the globe view (requires WebGL).

§ Visibility from observer

Set your observer location to see the next 7 days of passes ≥ 10°. The values pass through the URL so the page stays shareable.

No JS? Fill the form by hand. The geolocation button needs JavaScript.